Estación Meteorológica Peña el Pijo (Robertgarden) [ 07/11/20 21:41:49 CEST ]

Fecha Hora Presion(HPa) Temp (°C) Humedad % Rocio (°C) Viento ( m/s) Direccion Lluvia 1Hora(mm) Lluvia 24H(mm) LLuvia Total(mm)
2020-May-29 01:09:09 1012.900 - - - - W     39.88
2020-May-29 02:08:53 1012.600 - - - - W     39.88
2020-May-29 03:09:01 1012.000 - - - - W     39.88
2020-May-29 04:09:04 1011.500 - - - - W     39.88
2020-May-29 05:09:16 1010.900 - - - - W     39.88
2020-May-29 06:09:06 1010.500 - - - - W     39.88
2020-May-29 07:10:25 1010.400 - - - - W     39.88
2020-May-29 08:09:46 1010.600 - - - - W     39.88
2020-May-29 09:09:36 1010.100 - - - - W     39.88
2020-May-29 10:09:47 1009.800 - - - - W     39.88
2020-May-29 11:09:12 1009.400 - - - - W     39.88
2020-May-29 12:09:08 1009.100 - - - - W     39.88
2020-May-29 13:09:24 1008.300 - - - - W     39.88
2020-May-29 14:09:14 1007.900 - - - - W     39.88
2020-May-29 15:09:26 1007.500 - - - - W     39.88
2020-May-29 16:09:48 1007.000 - - - - W     39.88
2020-May-29 17:09:29 1006.400 - - - - W     39.88
2020-May-29 18:08:59 1006.300 - - - - W     39.88
2020-May-29 19:09:02 1006.300 - - - - W     39.88
2020-May-29 20:09:10 1006.200 - - - - W     39.88
2020-May-29 21:09:08 1006.700 - - - - W     39.88
2020-May-29 22:09:08 1007.400 - - - - W     39.88
2020-May-29 23:09:08 1008.200 - - - - W     39.88

Temperatura Máxima:    Temperatura Mínima:
Presión Máxima:1012.900 Hpa    Presión Mínima:1006.200 Hpa


Volver